Location: Bijele Vode
(45.2833°N, 16.2000°E)
Time: 21:05:15
(UTC+00:00)

ATLAS CENTAUR R/B - Pass Details

Date: 18 September 2020
Orbit: 479 x 667 km, 64.7° (Epoch: 12 October)

Event Time Altitude Azimuth Distance (km) Brightness Sun altitude
Rises 17:48:30 0° 269° (W) 2,664 6.7 -9.3°
Reaches altitude 10° 17:51:55 10° 300° (WNW) 1,736 5.2 -9.9°
Maximum altitude 17:53:34 12° 326° (NW) 1,577 4.4 -10.2°
Drops below altitude 10° 17:55:12 10° 352° (N) 1,706 4.1 -10.5°
Sets 17:58:30 0° 23° (NNE) 2,566 4.6 -11.0°
